This demonstration page uses our WeatherBlox Daily Observations layout. Learn more.

Left ArrowRight Arrow

39.51506, -84.39828

Hourly Observations for February 6, 2017

Temp ( °F °C ) Dew Point ( °F °C ) Humidity (%) Winds ( mph kmh ) Pressure ( in mb ) Visibility ( mi km ) Precip ( " mm )
12:53 am 00:53 Clear 33 0.6 26 -3.3 75 75 Calm 30.12 1020 10 16 0.00 0.00
1:53 am 01:53 Clear 28 -2.2 24 -4.4 85 85 ENE 5 7 30.10 1019 9 14 0.00 0.00
2:53 am 02:53 Clear 30 -1.1 25 -3.9 82 82 S 3 6 30.10 1019 10 16 0.00 0.00
3:53 am 03:53 Clear 30 -1.1 25 -3.9 82 82 Calm 30.10 1019 10 16 0.00 0.00
4:53 am 04:53 Clear 26 -3.3 23 -5 88 88 ESE 5 7 30.11 1020 10 16 0.00 0.00
5:53 am 05:53 Clear 30 -1.1 25 -3.9 82 82 ESE 6 9 30.11 1020 10 16 0.00 0.00
6:53 am 06:53 Clear 31 -0.6 26 -3.3 82 82 SSE 5 7 30.11 1020 10 16 0.00 0.00
7:53 am 07:53 Sunny 31 -0.6 26 -3.3 82 82 SSE 5 7 30.11 1020 8 13 0.00 0.00
8:53 am 08:53 Sunny 36 2.2 30 -1.1 79 79 S 6 9 30.10 1019 9 14 0.00 0.00
9:53 am 09:53 Sunny 41 5 34 1.1 76 76 SSW 9 15 30.09 1019 9 14 0.00 0.00
10:53 am 10:53 Sunny 46 7.8 37 2.8 71 71 SSW 12 19 30.07 1018 9 14 0.00 0.00
11:53 am 11:53 Sunny 51 10.6 38 3.3 61 61 SSW 10 17 30.06 1018 10 16 0.00 0.00
12:53 pm 12:53 Sunny 55 12.8 39 3.9 55 55 SSE 5 7 30.01 1016 10 16 0.00 0.00
1:53 pm 13:53 Sunny 59 15 39 3.9 48 48 S 14 22 29.96 1014 10 16 0.00 0.00
2:53 pm 14:53 Sunny 59 15 38 3.3 46 46 SSW 13 20 29.93 1014 10 16 0.00 0.00
3:53 pm 15:53 Partly Cloudy 60 15.6 39 3.9 46 46 S 17 28 29.92 1013 10 16 0.00 0.00
4:51 pm 16:51 Cloudy 57 14 43 6 59 59 SSW 10 17 29.88 1012 10 16 0.00 0.00
4:53 pm 16:53 Cloudy 57 13.9 43 6.1 60 60 SSW 8 13 29.91 1013 10 16 0.00 0.00
5:25 pm 17:25 Cloudy 55 12.8 44 6.7 67 67 S 8 13 29.88 1012 10 16 0.00 0.00
5:53 pm 17:53 Cloudy with Light Rain 54 12.2 46 7.8 75 75 S 13 20 29.89 1012 10 16 0.00 0.03
6:53 pm 18:53 Cloudy with Light Rain 52 11.1 48 8.9 86 86 W 7 11 29.90 1012 10 16 0.01 0.25
7:53 pm 19:53 Cloudy 51 10.6 49 9.4 92 92 S 5 7 29.86 1011 10 16 0.00 0.03
8:01 pm 20:01 Cloudy 51 10.6 49 9.4 92 92 S 5 7 29.85 1011 10 16 0.00 0.00
8:44 pm 20:44 Cloudy with Light Rain 51 10.6 49 9.4 92 92 S 9 15 29.83 1010 2 3 0.09 2.29
8:53 pm 20:53 Cloudy 51 10.6 49 9.4 92 92 SSW 7 11 29.85 1011 10 16 0.09 2.29
9:33 pm 21:33 Cloudy 53 11.7 51 10.6 93 93 SSW 12 19 29.83 1010 10 16 0.00 0.00
9:53 pm 21:53 Cloudy 53 11.7 51 10.6 93 93 SSW 13 20 29.83 1010 10 16 0.00 0.00
10:46 pm 22:46 Cloudy with Mist and Fog 53 11.7 52 11.1 96 96 SSW 14 22 29.80 1009 6 10 0.00 0.00
10:53 pm 22:53 Cloudy with Mist and Fog 53 11.7 52 11.1 96 96 SSW 13 20 29.80 1009 6 10 0.00 0.00
11:04 pm 23:04 Cloudy with Mist and Fog 53 11.7 52 11.1 96 96 S 14 22 29.80 1009 5 8 0.00 0.00
11:53 pm 23:53 Cloudy with Nearby Thunderstorms 54 12.2 53 11.7 97 97 SSW 10 17 29.77 1008 6 10 0.00 0.00

Powered by AerisWeather